Flag for U.S.A. Weather past 2 weeks in Chesapeake, Virginia, U.S.A.

Now
68 °F

Fog.


Feels Like: 68 °F
Forecast: 70 / 91 °F
Wind: No wind

Location: Chesapeake Municipal Airport

Current Time: Jul 13, 2014 at 2:31:40 AM

Latest Report: Jul 13, 2014 at 1:55 AM


Visibility: 5 mi

Pressure: 30.16 "Hg

Humidity: 94%

Dew point: 66 °F

Location of ChesapeakeLocation

Historic Weather in Chesapeake — Graph

°F

Chesapeake temperature yesterday

Maximum temperature yesterday: 84 °F (at 12:15 PM)
Minimum temperature yesterday: 64 °F (at 6:15 AM)
Average temperature yesterday: 75 °F

Past Weeks' High & Low Weather Summary

 TemperatureHumidityPressure
High93 °F (Jul 3, 2:35 PM)100% (Jun 29, 4:55 AM)30.24 "Hg (Jun 29, 4:55 AM)
Low57 °F (Jun 29, 3:55 AM)32% (Jul 5, 5:35 PM)29.66 "Hg (Jul 4, 4:15 AM)
Average77 °F75%30.03 "Hg
* Reported Jun 28 1:15 AM — Jul 13 1:15 AM, Chesapeake, Weather by CustomWeather, © 2014

Note: Actual official high and low records may vary slightly from our data, if they occured in-between our weather recording intervals... More about our weather records

Advertising

Chesapeake weather history for previous 24 hours

 ConditionsComfort  
Time TempWeatherWind HumidityBarometerVisibility
1:15 AM
Jul 13
70 °FClear.No wind94%30.17 "Hg7 mi
12:55 AM68 °FFog.No wind94%30.17 "Hg1 mi
12:35 AM70 °FFog.No wind94%30.17 "Hg5 mi
12:15 AM70 °FFog.No wind100%30.17 "Hg5 mi
11:55 PM
Jul 12
70 °FFog.No wind100%30.17 "Hg5 mi
11:35 PM70 °FFog.No wind100%30.17 "Hg5 mi
11:15 PM72 °FClear.No wind94%30.17 "Hg7 mi
10:55 PM72 °FClear.No wind94%30.17 "Hg7 mi
10:35 PM72 °FClear.3 mph94%30.17 "Hg7 mi
10:15 PM72 °FClear.No wind94%30.17 "Hg10 mi
9:55 PM73 °FClear.No wind89%30.18 "Hg10 mi
9:35 PM73 °FClear.No wind89%30.17 "Hg7 mi
9:15 PM73 °FSunny.No wind89%30.18 "Hg10 mi
8:55 PM75 °FSunny.3 mph83%30.17 "Hg10 mi
8:35 PM75 °FSunny.No wind83%30.17 "Hg10 mi
8:15 PM77 °FSunny.No wind79%30.17 "Hg10 mi
7:55 PM79 °FSunny.6 mph79%30.17 "Hg7 mi
7:35 PM79 °FSunny.6 mph74%30.17 "Hg7 mi
7:15 PM79 °FSunny.7 mph74%30.16 "Hg7 mi
6:55 PM81 °FSunny.6 mph70%30.17 "Hg10 mi
6:35 PM82 °FSunny.9 mph66%30.17 "Hg7 mi
6:15 PM82 °FSunny.7 mph66%30.17 "Hg7 mi
5:55 PM84 °FSunny.9 mph62%30.18 "Hg7 mi
5:35 PM84 °FSunny.3 mph62%30.19 "Hg7 mi
5:15 PM84 °FSunny.9 mph62%30.19 "Hg10 mi
4:55 PM84 °FScattered clouds.3 mph62%30.19 "Hg7 mi
4:35 PM84 °FSunny.3 mph62%30.19 "Hg10 mi
4:15 PM84 °FSunny.7 mph62%30.19 "Hg7 mi
3:55 PM84 °FScattered clouds.6 mph62%30.20 "Hg10 mi
3:35 PM84 °FSunny.3 mph62%30.20 "Hg7 mi
3:15 PM84 °FScattered clouds.8 mph62%30.20 "Hg7 mi
2:55 PM84 °FScattered clouds.6 mph62%30.20 "Hg10 mi
2:35 PM84 °FSunny.5 mph62%30.20 "Hg7 mi
2:15 PM84 °FSunny.8 mph62%30.20 "Hg7 mi
1:55 PM84 °FScattered clouds.7 mph62%30.21 "Hg7 mi
1:15 PM84 °FScattered clouds.3 mph58%30.21 "Hg7 mi
12:15 PM84 °FScattered clouds.7 mph55%30.22 "Hg10 mi
11:55 AM82 °FScattered clouds.5 mph58%30.23 "Hg7 mi
11:35 AM82 °FScattered clouds.3 mph62%30.23 "Hg7 mi
11:15 AM81 °FScattered clouds.3 mph70%30.23 "Hg7 mi
10:55 AM81 °FScattered clouds.No wind66%30.24 "Hg5 mi
10:15 AM81 °FScattered clouds.No wind70%30.23 "Hg7 mi
9:55 AM79 °FScattered clouds.5 mph74%30.23 "Hg7 mi
9:35 AM75 °FPartly sunny.3 mph89%30.22 "Hg7 mi
9:15 AM75 °FFog.3 mph89%30.23 "Hg5 mi
8:15 AM72 °FFog.No wind94%30.23 "Hg2 mi
7:55 AM70 °FFog.No wind94%30.22 "Hg1 mi
7:35 AM68 °FFog.No wind94%30.22 "Hg0 mi
7:15 AM66 °FFog.No wind100%30.22 "Hg0 mi
6:55 AM66 °FFog.No wind94%30.22 "Hg0 mi
6:35 AM66 °FFog.No wind94%30.22 "Hg0 mi
6:15 AM64 °FFog.No wind100%30.22 "Hg1 mi
5:55 AM66 °FFog.No wind94%30.22 "Hg0 mi
5:35 AM66 °FFog.No wind100%30.22 "Hg1 mi
5:15 AM66 °FFog.No wind100%30.22 "Hg2 mi
4:55 AM66 °FFog.No wind94%30.22 "Hg1 mi
4:35 AM66 °FFog.No wind94%30.22 "Hg1 mi
4:15 AM66 °FFog.No wind94%30.21 "Hg1 mi
3:55 AM66 °FFog.No wind100%30.21 "Hg1 mi
3:35 AM66 °FFog.No wind100%30.21 "Hg0 mi
3:15 AM66 °FFog.No wind100%30.21 "Hg1 mi
2:55 AM66 °FFog.No wind100%30.21 "Hg0 mi
2:35 AM66 °FFog.No wind100%30.22 "Hg0 mi
2:15 AM66 °FFog.No wind100%30.22 "Hg0 mi
Weather by CustomWeather, © 2014

See weather overviewHow to use our weather pages